Погода в Сосновке

Россия / Волгоградская область     50°47′51″N   44°16′33″E
темп.,
°C
ветер,
м/с
пор.,
м/с
влажн.,
%
обл.,
%
осадки,
мм/ч
давл.,
гПа
погр.,
м
19 мая, ср
ср1900:00+17ю226559 0.0 100915
03:00+14юз34955 0.0 100978
06:00+16зюз34860 0.0 1010198
09:00+20сз21630 0.0 1010662
12:00+24в454947 0.0 10091336
15:00+26ююв4638100 0.0 10081594
18:00+22юз9135798 0.1 1009677
21:00+15зюз41082100 0.9 1011408
20 мая, чт
чт2000:00+13юз3789100 0.1 1012383
03:00+12ююв239395 0.3 101281
06:00+13ю47888 0.0 1012385
09:00+17ю5769100 0.0 10111080
12:00+18ююз786647 0.6 10121294
15:00+19ююз685971 0.8 10111525
18:00+17юз696923 0.3 10111076
21:00+13юз49835 0.4 1012232
21 мая, пт
пт2100:00+11юз37921 0.0 1013146
03:00+11ююз389456 0.0 1014174
06:00+13ююз488583 0.0 1015268
09:00+19юз69615 0.0 1016979
12:00+22юз575116 0.0 10161547
15:00+24юз4546100 0.0 10161783
18:00+22юз1160100 0.0 101714
21:00+19ююз3465100 0.0 101857
22 мая, сб
сб2200:00+18всв2361100 0.0 101735
03:00+16всв4106979 0.0 1016167
06:00+17в497529 0.0 1016234
09:00+23юв7134799 0.0 1015844
12:00+27юв913385 0.0 10141569
15:00+29ююв71239100 0.0 10121941
18:00+27вюв3550100 0.0 101284
21:00+22вюв465585 0.0 101274
23 мая, вс
вс2300:00+21ююв4851100 0.0 1012111
03:00+19юв4650100 0.0 101276
06:00+19юв4105897 0.0 1011171
09:00+27юв6114293 0.0 1011513
12:00+30юв71034100 0.0 1010879
15:00+32юв7123683 0.0 10081486
18:00+28ююв71636100 0.0 1006420
21:00+26ююв9203018 0.0 1007687